period_start,C,m1,H,J0,J1,J2,J3,J4,J5,JA,JB,JC,JD,JJ,JK,JN,#
2015-02-05 00:04:29,0.14,7.63,0.00,18.39,23.97,26.75,4.93,29.07,1028.03,2039.02,1493.75,1823.74,1959.68,349.95,356.93,34.66,0000 0000 0000 0000 000000
2015-02-05 00:09:30,0.13,7.63,0.00,18.40,23.97,26.90,4.93,29.00,1028.18,2039.04,1493.03,1823.04,1959.03,350.12,357.16,34.69,0000 0000 0000 0000 000000
2015-02-05 00:14:31,0.17,7.64,0.00,18.33,23.97,26.73,4.99,29.02,1028.32,2039.02,1492.37,1822.78,1958.56,350.42,357.74,34.72,0000 0000 0000 0000 000000
2015-02-05 00:19:32,0.11,7.64,0.00,18.32,23.95,26.72,4.97,29.03,1028.33,2039.03,1491.85,1822.05,1958.01,350.45,357.79,34.75,0000 0000 0000 0000 000000
2015-02-05 00:24:34,0.14,7.65,0.00,18.38,23.95,26.84,4.98,28.98,1028.37,2039.04,1491.05,1821.89,1957.50,350.05,357.17,34.78,0000 0000 0000 0000 000000
2015-02-05 00:29:35,0.18,7.65,0.00,18.25,23.94,26.70,4.94,29.14,1028.42,2039.13,1490.70,1821.14,1957.01,349.91,357.55,34.81,0000 0000 0000 0000 000000
2015-02-05 00:34:36,0.08,7.65,0.00,18.30,23.92,26.67,4.92,29.00,1028.48,2039.13,1490.02,1820.99,1956.57,349.54,356.94,34.84,0000 0000 0000 0000 000000
2015-02-05 00:39:37,0.19,7.66,0.00,18.36,23.92,26.89,4.99,29.20,1028.67,2039.21,1489.50,1820.38,1956.02,349.71,357.23,34.87,0000 0000 0000 0000 000000
2015-02-05 00:44:39,0.08,7.66,0.00,18.23,23.90,26.68,4.94,28.82,1028.57,2039.18,1488.94,1820.00,1955.60,350.32,357.90,34.90,0000 0000 0000 0000 000000
2015-02-05 00:49:40,0.28,7.67,0.00,18.25,23.90,26.68,4.92,28.88,1028.60,2039.60,1488.15,1819.67,1955.02,349.33,356.73,34.93,0000 0000 0000 0000 000000
2015-02-05 00:54:41,0.12,7.67,0.00,18.35,23.90,26.81,4.95,29.04,1028.37,2039.76,1487.80,1819.03,1954.80,349.63,356.78,34.95,0000 0000 0000 0000 000000
2015-02-05 00:59:42,0.17,4.86,0.00,18.33,23.89,26.76,4.42,24.77,1028.42,2041.34,2215.04,2382.31,2572.09,310.33,314.59,0.00,0000 0000 0000 0000 000002
2015-02-05 01:04:43,0.13,0.00,0.00,18.19,23.89,26.59,4.96,27.13,1028.55,2044.03,3468.59,3353.56,3638.26,349.94,357.48,0.01,0000 0000 0000 0000 000000
2015-02-05 01:09:45,0.13,0.00,0.00,18.32,23.87,26.81,4.99,27.08,1028.79,2044.03,3465.98,3352.12,3636.51,349.93,357.43,0.04,0000 0000 0000 0000 000000
2015-02-05 01:14:46,0.14,0.00,0.00,18.37,23.87,26.85,4.89,27.04,1028.81,2044.03,3463.80,3350.70,3634.73,349.48,356.92,0.07,0000 0000 0000 0000 000000
2015-02-05 01:19:47,0.14,0.01,0.00,18.26,23.87,26.66,4.97,27.03,1028.83,2044.07,3461.84,3349.48,3633.29,350.30,358.12,0.10,0000 0000 0000 0000 000000
2015-02-05 01:24:48,0.15,0.01,0.00,18.32,23.85,26.85,4.97,26.98,1028.83,2044.09,3459.84,3348.17,3631.68,350.18,357.59,0.13,0000 0000 0000 0000 000000
2015-02-05 01:29:50,0.14,0.02,0.00,18.25,23.85,26.76,4.93,26.97,1028.85,2044.12,3457.90,3346.86,3630.19,350.03,357.58,0.16,0000 0000 0000 0000 000000
2015-02-05 01:34:51,0.16,0.02,0.00,18.20,23.85,26.66,4.97,26.94,1028.85,2044.20,3456.11,3345.62,3628.69,349.82,357.44,0.19,0000 0000 0000 0000 000000
2015-02-05 01:39:52,0.12,0.03,0.00,18.29,23.83,26.82,4.97,27.23,1028.96,2044.23,3454.17,3344.34,3627.19,350.27,357.93,0.22,0000 0000 0000 0000 000000
2015-02-05 01:44:54,0.17,0.03,0.00,18.24,23.82,26.70,4.87,27.16,1028.90,2044.36,3452.37,3342.98,3625.77,349.57,357.13,0.25,0000 0000 0000 0000 000000
2015-02-05 01:49:55,0.14,0.04,0.00,18.22,23.82,26.65,4.94,27.17,1028.87,2044.41,3450.43,3341.73,3624.34,350.15,357.89,0.28,0000 0000 0000 0000 000000
2015-02-05 01:54:56,0.14,0.04,0.00,18.30,23.82,26.78,4.90,27.10,1028.85,2044.27,3448.48,3340.40,3622.79,349.45,357.05,0.31,0000 0000 0000 0000 000000
2015-02-05 01:59:57,0.16,0.04,0.00,18.20,23.81,26.71,4.96,27.23,1028.86,2044.46,3446.59,3339.12,3621.36,350.07,357.72,0.34,0000 0000 0000 0000 000000
2015-02-05 02:04:58,0.13,0.05,0.00,18.26,23.80,26.68,4.91,27.08,1028.84,2044.44,3444.70,3337.75,3619.82,349.89,357.46,0.37,0000 0000 0000 0000 000000
2015-02-05 02:10:00,0.16,0.05,0.00,18.34,23.80,26.82,4.93,27.12,1028.83,2044.53,3442.82,3336.50,3618.43,349.57,357.05,0.40,0000 0000 0000 0000 000000
2015-02-05 02:15:01,0.15,0.06,0.00,18.23,23.80,26.71,4.90,27.24,1028.87,2044.69,3440.95,3335.26,3616.91,349.98,357.64,0.42,0000 0000 0000 0000 000000
2015-02-05 02:20:02,0.16,0.06,0.00,18.28,23.80,26.66,4.96,27.26,1028.97,2044.78,3439.04,3333.89,3615.48,350.24,357.93,0.45,0000 0000 0000 0000 000000
2015-02-05 02:25:03,0.15,0.07,0.00,18.35,23.79,26.83,4.93,27.14,1029.11,2044.90,3437.11,3332.57,3613.92,349.65,357.19,0.48,0000 0000 0000 0000 000000
2015-02-05 02:30:04,0.14,0.07,0.00,18.18,23.77,26.67,4.89,27.13,1029.20,2044.92,3435.28,3331.24,3612.48,349.71,357.57,0.51,0000 0000 0000 0000 000000
2015-02-05 02:35:06,0.14,0.08,0.00,18.28,23.77,26.71,4.94,27.23,1029.17,2044.91,3433.39,3329.84,3610.83,350.03,357.71,0.54,0000 0000 0000 0000 000000
2015-02-05 02:40:07,0.13,0.08,0.00,18.38,23.77,26.79,4.95,27.40,1029.10,2044.85,3431.43,3328.52,3609.33,350.18,357.77,0.57,0000 0000 0000 0000 000000
2015-02-05 02:45:09,0.14,0.08,0.00,18.22,23.77,26.64,4.92,27.08,1029.19,2044.87,3429.53,3327.28,3607.83,350.06,358.06,0.60,0000 0000 0000 0000 000000
2015-02-05 02:50:10,0.13,0.09,0.00,18.28,23.77,26.72,4.88,27.10,1029.28,2044.91,3427.68,3326.01,3606.48,349.63,357.35,0.63,0000 0000 0000 0000 000000
2015-02-05 02:55:12,0.13,0.09,0.00,18.34,23.77,26.86,5.03,27.12,1029.24,2044.96,3425.88,3324.77,3605.00,350.24,357.88,0.66,0000 0000 0000 0000 000000
2015-02-05 03:00:13,0.14,0.10,0.00,18.18,23.76,26.66,4.90,27.11,1029.01,2044.96,3424.11,3323.53,3603.59,349.86,357.51,0.69,0000 0000 0000 0000 000000
2015-02-05 03:05:14,0.11,0.10,0.00,18.22,23.75,26.68,4.96,27.13,1028.91,2044.96,3422.27,3322.30,3602.20,350.11,357.77,0.72,0000 0000 0000 0000 000000
2015-02-05 03:10:15,0.15,0.10,0.00,18.34,23.75,26.81,4.95,27.07,1028.88,2044.96,3420.38,3320.92,3600.77,350.32,357.77,0.75,0000 0000 0000 0000 000000
2015-02-05 03:15:16,0.13,0.11,0.00,18.19,23.75,26.65,5.00,27.05,1029.00,2044.98,3418.60,3319.74,3599.45,350.02,357.72,0.78,0000 0000 0000 0000 000000
2015-02-05 03:20:18,0.13,0.11,0.00,18.21,23.75,26.62,4.92,27.17,1029.00,2044.97,3416.74,3318.43,3597.97,349.87,357.77,0.81,0000 0000 0000 0000 000000
2015-02-05 03:25:19,0.14,0.12,0.00,18.32,23.75,26.78,4.95,27.10,1028.96,2044.97,3414.86,3317.05,3596.53,349.95,357.29,0.83,0000 0000 0000 0000 000000
2015-02-05 03:30:20,0.14,0.12,0.00,18.15,23.75,26.56,4.89,27.04,1028.89,2044.95,3413.02,3315.72,3595.05,350.08,357.83,0.86,0000 0000 0000 0000 000000
2015-02-05 03:35:21,0.14,0.13,0.00,18.17,23.75,26.63,4.91,27.13,1028.85,2044.97,3411.12,3314.40,3593.50,349.55,357.36,0.89,0000 0000 0000 0000 000000
2015-02-05 03:40:23,0.13,0.13,0.00,18.27,23.74,26.72,4.90,27.40,1028.86,2044.94,3409.29,3313.07,3591.93,349.46,357.10,0.92,0000 0000 0000 0000 000000
2015-02-05 03:45:24,0.13,0.13,0.00,18.19,23.73,26.58,4.93,27.22,1028.86,2044.95,3407.53,3311.86,3590.42,349.78,357.45,0.95,0000 0000 0000 0000 000000
2015-02-05 03:50:25,0.13,0.14,0.00,18.27,23.72,26.66,4.94,27.20,1028.88,2044.96,3405.92,3310.62,3588.99,350.18,357.68,0.98,0000 0000 0000 0000 000000
2015-02-05 03:55:26,0.12,0.14,0.00,18.29,23.72,26.79,4.92,27.12,1029.03,2044.97,3404.21,3309.40,3587.64,349.92,357.45,1.01,0000 0000 0000 0000 000000
2015-02-05 04:00:27,0.12,0.14,0.00,18.16,23.72,26.65,5.02,27.04,1028.89,2044.97,3402.48,3308.22,3586.31,350.24,357.77,1.04,0000 0000 0000 0000 000000
2015-02-05 04:05:28,0.12,0.15,0.00,18.25,23.72,26.73,5.01,27.12,1028.90,2044.95,3400.74,3307.01,3584.95,350.43,357.93,1.07,0000 0000 0000 0000 000000
2015-02-05 04:10:30,0.15,0.15,0.00,18.24,23.72,26.77,4.92,27.31,1029.06,2044.97,3399.00,3305.71,3583.59,349.12,356.70,1.10,0000 0000 0000 0000 000000
2015-02-05 04:15:31,0.11,0.16,0.00,18.08,23.72,26.61,4.96,27.13,1029.19,2044.98,3397.29,3304.49,3582.37,349.87,357.80,1.13,0000 0000 0000 0000 000000
2015-02-05 04:20:32,0.12,0.16,0.00,18.19,23.72,26.71,4.95,27.17,1029.26,2044.95,3395.60,3303.35,3581.04,349.71,357.19,1.16,0000 0000 0000 0000 000000
2015-02-05 04:25:33,0.13,0.16,0.00,18.16,23.72,26.68,4.94,27.16,1029.19,2044.98,3393.83,3302.08,3579.65,350.18,358.32,1.19,0000 0000 0000 0000 000000
2015-02-05 04:30:34,0.12,0.17,0.00,18.18,23.71,26.64,4.97,27.17,1029.18,2044.98,3392.18,3300.87,3578.37,349.64,357.44,1.22,0000 0000 0000 0000 000000
2015-02-05 04:35:36,0.13,0.17,0.00,18.28,23.70,26.75,4.96,27.21,1029.14,2044.98,3390.64,3299.71,3576.90,350.20,357.88,1.25,0000 0000 0000 0000 000000
2015-02-05 04:40:37,0.13,0.17,0.00,18.18,23.70,26.58,4.98,27.38,1028.95,2044.98,3388.82,3298.44,3575.52,349.69,357.09,1.27,0000 0000 0000 0000 000000
2015-02-05 04:45:38,0.12,0.18,0.00,18.19,23.70,26.59,4.99,27.15,1028.98,2044.98,3387.06,3297.13,3574.06,350.29,358.09,1.30,0000 0000 0000 0000 000000
2015-02-05 04:50:40,0.13,0.18,0.00,18.20,23.70,26.75,4.92,27.12,1029.14,2044.97,3385.36,3295.92,3572.66,349.73,357.49,1.33,0000 0000 0000 0000 000000
2015-02-05 04:55:41,0.14,0.19,0.00,18.11,23.70,26.55,4.95,27.21,1029.29,2044.97,3383.62,3294.62,3571.39,350.29,358.24,1.36,0000 0000 0000 0000 000000
2015-02-05 05:00:42,0.11,0.19,0.00,18.19,23.69,26.70,5.00,27.10,1029.31,2044.98,3381.96,3293.54,3570.00,350.83,358.63,1.39,0000 0000 0000 0000 000000
2015-02-05 05:05:43,0.13,0.19,0.00,18.18,23.68,26.69,4.97,27.23,1029.31,2044.98,3380.22,3292.27,3568.63,350.13,357.74,1.42,0000 0000 0000 0000 000000
2015-02-05 05:10:45,0.12,0.20,0.00,18.11,23.67,26.63,4.95,27.17,1029.31,2044.98,3378.55,3291.00,3567.37,349.63,357.60,1.45,0000 0000 0000 0000 000000
2015-02-05 05:15:46,0.12,0.20,0.00,18.18,23.67,26.76,4.97,27.11,1029.29,2044.98,3376.84,3289.88,3565.95,349.82,357.63,1.48,0000 0000 0000 0000 000000
2015-02-05 05:20:47,0.14,0.21,0.00,18.16,23.67,26.60,4.99,27.13,1029.29,2044.98,3375.19,3288.67,3564.64,349.94,357.82,1.51,0000 0000 0000 0000 000000
2015-02-05 05:25:48,0.12,0.21,0.00,18.16,23.67,26.66,4.97,27.00,1029.31,2044.99,3373.48,3287.53,3563.38,350.06,358.07,1.54,0000 0000 0000 0000 000000
2015-02-05 05:30:50,0.12,0.21,0.00,18.16,23.67,26.74,4.92,26.96,1029.31,2044.99,3371.79,3286.33,3561.97,350.51,358.40,1.57,0000 0000 0000 0000 000000
2015-02-05 05:35:51,0.12,0.22,0.00,18.07,23.65,26.55,4.89,27.02,1029.31,2044.99,3370.06,3285.12,3560.67,349.66,357.56,1.60,0000 0000 0000 0000 000000
2015-02-05 05:40:52,0.14,0.22,0.00,18.15,23.65,26.70,4.97,27.32,1029.31,2044.99,3368.21,3283.78,3559.28,350.12,358.02,1.63,0000 0000 0000 0000 000000
2015-02-05 05:45:54,0.13,0.23,0.00,18.02,23.65,26.51,5.00,27.17,1029.31,2044.99,3366.54,3282.59,3557.82,349.41,357.55,1.65,0000 0000 0000 0000 000000
2015-02-05 05:50:55,0.13,0.23,0.00,18.06,23.65,26.51,4.99,27.12,1029.33,2044.98,3364.77,3281.32,3556.48,349.79,357.82,1.68,0000 0000 0000 0000 000000
2015-02-05 05:55:56,0.11,0.23,0.00,18.14,23.64,26.64,4.92,27.13,1029.31,2044.98,3363.07,3280.15,3555.15,349.97,357.89,1.71,0000 0000 0000 0000 000000
2015-02-05 06:00:57,0.13,0.24,0.00,18.02,23.63,26.46,4.92,27.35,1029.31,2044.99,3361.43,3278.96,3553.83,349.61,357.72,1.74,0000 0000 0000 0000 000000
2015-02-05 06:05:58,0.13,0.24,0.00,18.10,23.62,26.61,4.94,27.14,1029.31,2044.99,3359.71,3277.75,3552.51,350.15,358.20,1.77,0000 0000 0000 0000 000000
2015-02-05 06:10:59,0.15,0.25,0.00,18.14,23.62,26.63,4.86,27.15,1029.36,2044.99,3357.92,3276.29,3550.90,348.84,356.74,1.80,0000 0000 0000 0000 000000
2015-02-05 06:16:01,0.15,0.25,0.00,17.96,23.62,26.44,5.01,27.15,1029.54,2044.99,3356.05,3274.85,3549.21,350.81,358.94,1.83,0000 0000 0000 0000 000000
2015-02-05 06:21:02,0.14,0.25,0.00,18.13,23.62,26.56,4.97,27.27,1029.45,2044.99,3354.17,3273.56,3547.66,349.63,357.55,1.86,0000 0000 0000 0000 000000
2015-02-05 06:26:03,0.12,0.26,0.00,18.13,23.61,26.55,4.94,27.12,1029.71,2044.99,3352.45,3272.31,3546.35,349.81,357.75,1.89,0000 0000 0000 0000 000000
2015-02-05 06:31:04,0.12,0.26,0.00,18.06,23.60,26.49,4.98,27.23,1029.79,2044.99,3350.80,3271.21,3545.05,350.05,358.22,1.92,0000 0000 0000 0000 000000
2015-02-05 06:36:06,0.14,0.27,0.00,18.10,23.60,26.66,4.91,27.13,1029.75,2044.99,3349.01,3269.91,3543.64,349.61,357.84,1.95,0000 0000 0000 0000 000000
2015-02-05 06:41:08,0.14,0.27,0.00,17.96,23.60,26.42,4.94,27.40,1029.80,2044.99,3347.19,3268.59,3542.22,349.68,358.25,1.98,0000 0000 0000 0000 000000
2015-02-05 06:46:09,0.13,0.27,0.00,18.01,23.59,26.49,4.90,27.19,1029.82,2044.99,3345.50,3267.43,3540.80,349.57,357.96,2.01,0000 0000 0000 0000 000000
2015-02-05 06:51:10,0.13,0.28,0.00,18.05,23.57,26.57,4.99,27.07,1029.81,2044.99,3343.74,3266.24,3539.53,350.10,358.23,2.04,0000 0000 0000 0000 000000
2015-02-05 06:56:12,0.12,0.28,0.00,17.92,23.57,26.35,4.92,27.13,1029.80,2044.99,3342.03,3265.01,3538.18,349.91,358.18,2.07,0000 0000 0000 0000 000000
2015-02-05 07:01:13,0.12,0.29,0.00,17.97,23.57,26.51,5.04,27.20,1029.83,2044.99,3340.48,3263.90,3536.89,349.89,358.07,2.09,0000 0000 0000 0000 000000
2015-02-05 07:06:14,0.14,0.29,0.00,17.90,23.56,26.35,4.97,27.02,1029.96,2045.00,3338.72,3262.78,3535.60,350.41,358.84,2.12,0000 0000 0000 0000 000000
2015-02-05 07:11:16,0.13,0.29,0.00,17.93,23.55,26.39,4.98,27.18,1030.25,2045.00,3336.94,3261.61,3534.18,350.00,358.54,2.15,0000 0000 0000 0000 000000
2015-02-05 07:16:16,0.13,0.30,0.00,17.99,23.55,26.46,4.97,27.11,1030.29,2045.00,3335.24,3260.42,3532.87,350.18,358.36,2.18,0000 0000 0000 0000 000000
2015-02-05 07:21:18,0.13,0.30,0.00,17.80,23.54,26.27,4.93,27.11,1030.29,2045.01,3333.53,3259.19,3531.52,349.95,358.61,2.21,0000 0000 0000 0000 000000
2015-02-05 07:26:19,0.13,0.31,0.00,17.94,23.52,26.45,4.98,27.15,1030.34,2045.00,3331.81,3257.94,3530.14,350.23,358.68,2.24,0000 0000 0000 0000 000000
2015-02-05 07:31:20,0.15,0.31,0.00,17.90,23.52,26.33,4.95,27.08,1030.35,2045.01,3330.04,3256.67,3528.67,350.36,358.95,2.27,0000 0000 0000 0000 000000
2015-02-05 07:36:22,0.11,0.31,0.00,17.93,23.52,26.28,4.94,27.02,1030.41,2045.00,3328.39,3255.53,3527.40,349.73,358.25,2.30,0000 0000 0000 0000 000000
2015-02-05 07:41:23,0.13,0.32,0.00,17.88,23.50,26.32,4.91,27.18,1030.69,2045.01,3326.70,3254.24,3525.89,349.04,357.57,2.33,0000 0000 0000 0000 000000
2015-02-05 07:46:24,0.12,0.32,0.00,17.87,23.50,26.21,4.93,27.12,1030.71,2045.03,3325.09,3253.10,3524.64,350.08,358.90,2.36,0000 0000 0000 0000 000000
2015-02-05 07:51:25,0.13,0.32,0.00,17.91,23.50,26.36,5.00,27.03,1030.76,2045.04,3323.34,3251.89,3523.33,350.09,358.80,2.39,0000 0000 0000 0000 000000
2015-02-05 07:56:26,0.13,0.33,0.00,17.73,23.48,26.12,4.93,27.17,1030.78,2045.04,3321.63,3250.71,3522.06,349.66,358.63,2.42,0000 0000 0000 0000 000000
2015-02-05 08:01:28,0.13,0.33,0.00,17.92,23.47,26.31,4.97,27.13,1030.78,2045.06,3319.92,3249.50,3520.71,350.03,358.72,2.45,0000 0000 0000 0000 000000
2015-02-05 08:06:29,0.13,0.34,0.00,17.88,23.47,26.28,5.02,27.24,1030.78,2045.10,3318.27,3248.30,3519.41,350.27,359.02,2.48,0000 0000 0000 0000 000000
2015-02-05 08:11:30,0.14,0.34,0.00,17.81,23.46,26.16,4.95,27.15,1030.78,2045.24,3316.58,3247.11,3518.19,350.03,358.79,2.50,0000 0000 0000 0000 000000
2015-02-05 08:16:32,0.17,0.35,0.00,17.90,23.45,26.36,4.98,27.06,1030.78,2045.48,3314.89,3245.91,3516.84,350.10,358.57,2.53,0000 0000 0000 0000 000000
2015-02-05 08:21:33,0.12,0.35,0.00,17.78,23.45,26.25,5.00,27.11,1030.78,2045.38,3313.04,3244.64,3515.52,350.24,358.96,2.56,0000 0000 0000 0000 000000
2015-02-05 08:26:34,0.16,0.35,0.00,17.85,23.43,26.25,5.02,27.13,1030.78,2045.58,3311.46,3243.52,3514.19,350.13,358.85,2.59,0000 0000 0000 0000 000000
2015-02-05 08:31:36,0.09,0.36,0.00,17.88,23.42,26.42,4.91,27.00,1030.82,2045.44,3309.53,3242.23,3512.86,349.60,358.52,2.62,0000 0000 0000 0000 000000
2015-02-05 08:36:37,0.18,0.36,0.00,17.71,23.42,26.11,4.98,27.26,1030.86,2045.73,3307.81,3241.03,3511.68,349.69,358.57,2.65,0000 0000 0000 0000 000000
2015-02-05 08:41:38,0.15,0.37,0.00,17.85,23.41,26.31,5.06,27.36,1031.08,2045.75,3305.97,3239.76,3510.25,350.20,358.99,2.68,0000 0000 0000 0000 000000
2015-02-05 08:46:39,0.13,0.37,0.00,17.77,23.40,26.19,4.93,27.19,1031.21,2045.89,3304.35,3238.56,3508.90,350.29,359.51,2.71,0000 0000 0000 0000 000000
2015-02-05 08:51:41,0.14,0.38,0.00,17.85,23.40,26.17,4.95,27.20,1031.26,2045.94,3302.71,3237.35,3507.55,350.06,359.08,2.74,0000 0000 0000 0000 000000
2015-02-05 08:56:42,0.12,0.38,0.00,17.84,23.40,26.23,4.94,27.23,1031.26,2045.96,3301.12,3236.12,3506.06,349.88,358.85,2.77,0000 0000 0000 0000 000000
2015-02-05 09:01:43,0.15,0.38,0.00,17.75,23.38,26.12,4.93,27.16,1031.29,2045.97,3299.20,3234.84,3504.63,349.94,359.02,2.80,0000 0000 0000 0000 000000
2015-02-05 09:06:45,0.13,0.39,0.00,17.90,23.37,26.22,5.00,27.37,1031.31,2045.96,3297.47,3233.58,3503.33,350.27,359.17,2.83,0000 0000 0000 0000 000000
2015-02-05 09:11:46,0.14,0.39,0.00,17.89,23.37,26.23,4.99,27.18,1031.37,2045.97,3295.71,3232.36,3501.81,349.81,358.30,2.86,0000 0000 0000 0000 000000
2015-02-05 09:16:47,0.15,0.40,0.00,17.82,23.37,26.19,5.01,27.25,1031.35,2045.98,3293.78,3230.93,3500.38,350.37,359.57,2.89,0000 0000 0000 0000 000000
2015-02-05 09:21:48,0.14,0.40,0.00,17.90,23.37,26.35,4.95,27.11,1031.44,2045.98,3292.10,3229.64,3498.87,349.88,358.75,2.91,0000 0000 0000 0000 000000
2015-02-05 09:26:49,0.13,0.40,0.00,17.79,23.37,26.13,5.08,27.11,1031.52,2045.98,3290.40,3228.42,3497.46,350.53,359.66,2.94,0000 0000 0000 0000 000000
2015-02-05 09:31:50,0.13,0.41,0.00,17.85,23.35,26.26,5.00,27.09,1031.58,2045.97,3288.62,3227.18,3495.98,349.93,358.76,2.97,0000 0000 0000 0000 000000
2015-02-05 09:36:51,0.16,0.41,0.00,17.80,23.35,26.18,4.99,27.21,1031.75,2045.98,3286.84,3225.83,3494.53,349.97,359.23,3.00,0000 0000 0000 0000 000000
2015-02-05 09:41:52,0.14,0.42,0.00,17.83,23.35,26.12,4.94,27.22,1031.75,2045.96,3284.83,3224.48,3493.03,350.46,359.45,3.03,0000 0000 0000 0000 000000
2015-02-05 09:46:54,0.13,0.42,0.00,17.94,23.35,26.29,4.96,27.19,1031.75,2045.98,3283.10,3223.31,3491.79,350.14,359.17,3.06,0000 0000 0000 0000 000000
2015-02-05 09:51:55,0.13,0.43,0.00,17.92,23.34,26.37,4.98,27.19,1031.75,2045.99,3281.37,3222.09,3490.55,350.55,359.62,3.09,0000 0000 0000 0000 000000
2015-02-05 09:56:56,0.13,0.43,0.00,17.80,23.32,26.22,4.96,27.12,1031.77,2045.98,3279.54,3220.84,3489.23,350.32,359.47,3.12,0000 0000 0000 0000 000000
2015-02-05 10:01:58,0.14,0.43,0.00,17.91,23.32,26.27,4.94,27.14,1031.77,2045.99,3277.69,3219.57,3487.93,349.53,358.58,3.15,0000 0000 0000 0000 000000
2015-02-05 10:06:59,0.13,0.44,0.00,17.93,23.32,26.33,4.94,27.26,1031.77,2045.99,3276.00,3218.26,3486.35,349.54,358.49,3.18,0000 0000 0000 0000 000000
2015-02-05 10:12:01,0.14,0.44,0.00,17.87,23.32,26.24,4.96,27.11,1031.77,2045.99,3274.19,3216.93,3484.82,349.82,358.80,3.21,0000 0000 0000 0000 000000
2015-02-05 10:17:02,0.15,0.45,0.00,17.89,23.32,26.30,5.02,26.98,1031.77,2045.99,3272.35,3215.63,3483.38,351.11,360.24,3.24,0000 0000 0000 0000 000000
2015-02-05 10:22:04,0.14,0.45,0.00,17.91,23.32,26.39,4.99,27.10,1031.83,2045.98,3270.56,3214.30,3481.84,349.87,358.99,3.27,0000 0000 0000 0000 000000
2015-02-05 10:27:05,0.14,0.46,0.00,17.78,23.32,26.16,4.99,27.17,1031.77,2045.98,3268.74,3212.95,3480.35,350.14,359.28,3.30,0000 0000 0000 0000 000000
2015-02-05 10:32:06,0.15,0.46,0.00,17.84,23.31,26.21,4.98,27.11,1031.78,2045.99,3266.89,3211.66,3478.92,350.01,358.81,3.32,0000 0000 0000 0000 000000
2015-02-05 10:37:07,0.13,0.46,0.00,17.73,23.30,26.21,4.97,27.27,1031.88,2045.99,3265.16,3210.43,3477.55,349.83,359.27,3.35,0000 0000 0000 0000 000000
2015-02-05 10:42:09,0.14,0.47,0.00,17.73,23.29,26.21,4.95,27.18,1031.98,2045.98,3263.32,3209.02,3476.00,349.86,359.24,3.38,0000 0000 0000 0000 000000
2015-02-05 10:47:10,0.16,0.47,0.00,17.85,23.29,26.29,5.00,27.15,1032.18,2045.98,3261.45,3207.67,3474.64,350.33,359.64,3.41,0000 0000 0000 0000 000000
2015-02-05 10:52:11,0.13,0.48,0.00,17.75,23.29,26.09,4.96,27.10,1032.22,2045.99,3259.66,3206.47,3473.45,350.07,359.51,3.44,0000 0000 0000 0000 000000
2015-02-05 10:57:12,0.13,0.48,0.00,17.81,23.29,26.20,4.96,27.21,1032.24,2045.99,3257.93,3205.26,3472.03,350.12,359.59,3.47,0000 0000 0000 0000 000000
2015-02-05 11:02:14,0.14,0.49,0.00,17.79,23.29,26.19,4.99,27.18,1032.24,2045.99,3256.26,3203.90,3470.51,349.94,359.36,3.50,0000 0000 0000 0000 000000
2015-02-05 11:07:15,0.15,0.49,0.00,17.71,23.29,26.11,5.04,27.19,1032.24,2045.99,3254.42,3202.58,3468.95,350.15,359.60,3.53,0000 0000 0000 0000 000000
2015-02-05 11:12:16,0.13,0.49,0.00,17.78,23.28,26.22,4.91,27.27,1032.24,2045.99,3252.58,3201.35,3467.61,349.72,359.14,3.56,0000 0000 0000 0000 000000
2015-02-05 11:17:17,0.14,0.50,0.00,17.66,23.27,26.10,4.99,27.18,1032.24,2045.99,3250.85,3200.04,3466.24,350.14,359.82,3.59,0000 0000 0000 0000 000000
2015-02-05 11:22:18,0.14,0.50,0.00,17.77,23.27,26.11,4.95,27.14,1032.23,2045.99,3249.08,3198.74,3464.66,350.13,359.34,3.62,0000 0000 0000 0000 000000
2015-02-05 11:27:19,0.13,0.51,0.00,17.78,23.27,26.14,4.94,27.23,1032.23,2045.99,3247.40,3197.51,3463.27,349.93,359.42,3.65,0000 0000 0000 0000 000000
2015-02-05 11:32:20,0.14,0.51,0.00,17.70,23.27,26.02,4.94,27.11,1032.24,2045.99,3245.60,3196.23,3461.73,349.65,359.23,3.68,0000 0000 0000 0000 000000
2015-02-05 11:37:22,0.15,0.51,0.00,17.78,23.27,26.07,4.98,27.20,1032.24,2045.99,3243.71,3194.88,3460.31,350.23,359.64,3.71,0000 0000 0000 0000 000000
2015-02-05 11:42:23,0.16,0.52,0.00,17.71,23.26,26.16,5.01,27.27,1032.24,2045.99,3241.78,3193.47,3458.77,349.98,359.41,3.73,0000 0000 0000 0000 000000
2015-02-05 11:47:24,0.12,0.52,0.00,17.67,23.25,26.01,4.92,27.15,1032.24,2045.99,3240.13,3192.24,3457.39,350.34,359.81,3.76,0000 0000 0000 0000 000000
2015-02-05 11:52:25,0.16,0.53,0.00,17.77,23.25,26.18,4.93,27.20,1032.24,2045.99,3238.31,3190.85,3455.85,349.63,358.89,3.79,0000 0000 0000 0000 000000
2015-02-05 11:57:26,0.14,0.53,0.00,17.70,23.24,26.02,5.00,27.21,1032.24,2045.99,3236.54,3189.55,3454.45,350.37,359.99,3.82,0000 0000 0000 0000 000000
2015-02-05 12:02:27,0.14,0.54,0.00,17.75,23.24,26.00,4.92,27.01,1032.25,2045.99,3234.71,3188.32,3452.99,349.78,359.28,3.85,0000 0000 0000 0000 000000
2015-02-05 12:07:29,0.14,0.54,0.00,17.80,23.24,26.22,4.99,27.19,1032.24,2045.99,3233.01,3187.04,3451.67,350.07,359.38,3.88,0000 0000 0000 0000 000000
2015-02-05 12:12:30,0.15,0.54,0.00,17.73,23.22,26.11,4.92,27.11,1032.29,2045.99,3231.10,3185.72,3450.27,349.64,359.02,3.91,0000 0000 0000 0000 000000
2015-02-05 12:17:31,0.15,0.55,0.00,17.79,23.22,26.17,4.98,27.18,1032.47,2045.99,3229.11,3184.42,3448.81,350.00,359.40,3.94,0000 0000 0000 0000 000000
2015-02-05 12:22:33,0.13,0.55,0.00,17.84,23.22,26.24,4.99,27.18,1032.73,2045.99,3227.36,3183.12,3447.43,350.12,359.60,3.97,0000 0000 0000 0000 000000
2015-02-05 12:27:34,0.16,0.56,0.00,17.74,23.22,26.12,4.96,27.18,1032.73,2045.99,3225.56,3181.76,3445.92,349.83,359.44,4.00,0000 0000 0000 0000 000000
2015-02-05 12:32:36,0.14,0.56,0.00,17.81,23.22,26.19,4.95,27.16,1032.73,2046.00,3223.72,3180.46,3444.51,349.44,359.02,4.03,0000 0000 0000 0000 000000
2015-02-05 12:37:36,0.14,0.57,0.00,17.73,23.21,26.13,5.13,27.36,1032.73,2046.00,3221.83,3179.04,3442.94,350.80,360.32,4.06,0000 0000 0000 0000 000000
2015-02-05 12:42:38,0.16,0.57,0.00,17.77,23.20,26.06,4.94,27.22,1032.74,2046.00,3219.97,3177.65,3441.46,350.03,359.50,4.09,0000 0000 0000 0000 000000
2015-02-05 12:47:39,0.13,0.58,0.00,17.78,23.20,26.19,4.94,27.07,1032.76,2046.00,3218.22,3176.40,3440.00,349.80,359.33,4.12,0000 0000 0000 0000 000000
2015-02-05 12:52:40,0.15,0.58,0.00,17.70,23.19,26.08,5.06,27.30,1032.77,2046.00,3216.40,3175.03,3438.49,350.74,360.40,4.14,0000 0000 0000 0000 000000
2015-02-05 12:57:41,0.15,0.58,0.00,17.73,23.19,26.09,4.99,27.05,1032.78,2046.00,3214.65,3173.71,3437.02,350.18,359.65,4.17,0000 0000 0000 0000 000000
2015-02-05 13:02:42,0.14,0.59,0.00,17.71,23.19,26.14,4.97,27.11,1032.76,2046.00,3212.74,3172.44,3435.62,350.16,359.62,4.20,0000 0000 0000 0000 000000
2015-02-05 13:07:44,0.13,0.59,0.00,17.70,23.19,26.03,5.01,27.20,1032.77,2046.00,3210.95,3171.23,3434.33,350.13,359.84,4.23,0000 0000 0000 0000 000000